SINAH 1

Last updated on Tue Jul 08 2025 00:02:28 GMT+0000 (Coordinated Universal Time)

1 28893U 05043D 25188.57846890 .00000255 00000+0 58377-4 0 9998 2 28893 98.2405 316.9446 0013222 276.3081 83.6615 14.63737552 50108
UTC large
Height (km)
Speed (km/s)
/
Latitude / Longitude
Inclination (degrees)
Orbital Period (minutes)
Azimuth
Elevation
Range (km)
Doppler Factor

Next 0 passes for location: London (51.5072 / 0.1276)

Sorry there are no passes over London.